Regional Weather Roundup
Issued by NWS

Home | Current Version | Previous Version | Text Only | Print | Product List | Glossary On
Versions: 1 2 3 4 5 6 7 8 9 10 11 12 13 14 15 16 17 18 19 20 21 22 23 24 25 26 27 28 29 30 31 32 33 34 35 36 37 38 39 40 41 42 43 44 45 46 47 48 49 50
000
ASUS43 KLMK 190702
RWRKY
KENTUCKY REGIONAL WEATHER ROUNDUP
NATIONAL WEATHER SERVICE LOUISVILLE KY
300 AM EDT FRI SEP 19 2014

NOTE "FAIR" INDICATES FEW OR NO CLOUDS BELOW 12,000 FEET
WITH NO SIGNIFICANT WEATHER AND/OR OBSTRUCTIONS TO VISIBILITY.

KYZ001>023-026-027-061>063-070>075-190800-
WESTERN AND SOUTH CENTRAL KENTUCKY

CITY           SKY/WX    TMP DP  RH WIND       PRES   REMARKS
PADUCAH        CLEAR     60  53  77 CALM      30.05S
HENDERSON      CLEAR     55  50  82 E3        30.08R
OWENSBORO      CLEAR     61  53  74 E7        30.08S
HOPKINSVILLE   CLEAR     57  56  97 NE5       30.05S
BOWLING GREEN  CLEAR     57  53  86 CALM      30.07R
GLASGOW        CLEAR     56  52  85 CALM      30.08R
$$

KYZ024-025-028>034-038-045-046-053-190800-
NORTH CENTRAL KENTUCKY

CITY           SKY/WX    TMP DP  RH WIND       PRES   REMARKS
LOUISVILLE/SDF CLEAR     61  50  67 E8        30.10S
LOUISVILLE/LOU CLEAR     60  49  66 E6        30.11S
FORT KNOX      CLEAR     58  51  78 NE7       30.09S
$$

KYZ035>037-039>044-047>052-055>060-089>105-190800-
NORTHEAST KENTUCKY

CITY           SKY/WX    TMP DP  RH WIND       PRES   REMARKS
LEXINGTON      CLEAR     58  48  69 E9        30.12S
COVINGTON      CLEAR     57  46  66 E9        30.15S
FRANKFORT      CLEAR     57  50  77 NE6       30.11F
$$

KYZ054-064>069-076>088-106>120-190800-
SOUTHEAST KENTUCKY

CITY           SKY/WX    TMP DP  RH WIND       PRES   REMARKS
JACKSON        CLEAR     57  50  77 CALM      30.11S
LONDON         CLEAR     58  53  84 N5        30.10S
SOMERSET       NOT AVBL
MIDDLESBORO    MOCLDY    54  54  99 CALM      30.11S
MONTICELLO     SUNNY     56  54  93 N6        30.10S
$$




USA.gov is the U.S. government's official web portal to all federal, state and local government web resources and services.